This is the latest recevied weather packets stored in our database for station/object JA7ZQY-10. If no packets are shown the sender has not sent any weather packets the latest 10 day(s).
| Time | Temp. | Humidity | Pressure | Rain* | Wind** | Luminosity | Snow |
|---|---|---|---|---|---|---|---|
| 1777612355 | 14.44° C | 86% | 1002.4 hPa | 0.76 mm | - | - | - |
| 1777611756 | 13.89° C | 87% | 1002.6 hPa | 0.76 mm | - | - | - |
| 1777611155 | 12.78° C | 85% | 1002.9 hPa | 0.51 mm | - | - | - |
| 1777610555 | 12.78° C | 82% | 1002.9 hPa | 0.51 mm | - | - | - |
| 1777609955 | 12.22° C | 83% | 1003.5 hPa | 0.25 mm | - | - | - |
| 1777609354 | 12.22° C | 81% | 1004 hPa | 0.51 mm | - | - | - |
| 1777608755 | 12.22° C | 80% | 1004 hPa | 0.25 mm | - | - | - |
| 1777608156 | 12.22° C | 81% | 1004.7 hPa | 0.25 mm | - | - | - |
| 1777607555 | 12.22° C | 83% | 1005.1 hPa | 0.51 mm | - | - | - |
| 1777606956 | 12.22° C | 83% | 1005.3 hPa | 0.51 mm | - | - | - |
| 1777606355 | 12.22° C | 81% | 1005.8 hPa | 0.76 mm | - | - | - |
| 1777605755 | 12.78° C | 81% | 1006.1 hPa | 0.51 mm | - | - | - |
| 1777605154 | 12.78° C | 79% | 1006.2 hPa | 0.51 mm | - | - | - |
| 1777604555 | 13.33° C | 78% | 1006.5 hPa | 0.51 mm | - | - | - |
| 1777603956 | 13.33° C | 77% | 1006.9 hPa | 0.25 mm | - | - | - |
| 1777603355 | 13.33° C | 75% | 1007.3 hPa | 0.25 mm | - | - | - |
| 1777602754 | 13.89° C | 72% | 1007.5 hPa | 0 mm | - | - | - |
| 1777602155 | 14.44° C | 71% | 1007.9 hPa | 0 mm | - | - | - |
| 1777601554 | 14.44° C | 68% | 1008.1 hPa | 0 mm | - | - | - |
| 1777600955 | 14.44° C | 66% | 1008.5 hPa | 0 mm | - | - | - |
| 1777600354 | 14.44° C | 66% | 1008.9 hPa | 0 mm | - | - | - |
| 1777599756 | 14.44° C | 66% | 1009.2 hPa | 0 mm | - | - | - |
| 1777599155 | 14.44° C | 67% | 1009.4 hPa | 0 mm | - | - | - |
| 1777598556 | 13.89° C | 65% | 1009.4 hPa | 0 mm | - | - | - |
| 1777597955 | 14.44° C | 64% | 1009.6 hPa | 0 mm | - | - | - |
* Rain latest hour (hover to see other rain measurements)
** Current wind speed in m/s (hover to see current wind gust speed)